Regional Weather Roundup
Issued by NWS

Home | Current Version | Previous Version | Graphics & Text | Print | Product List | Glossary Off
Versions: 1 2 3 4 5 6 7 8 9 10 11 12 13 14 15 16 17 18 19 20 21 22 23 24 25 26 27 28 29 30 31 32 33 34 35 36 37 38 39 40

000
ASUS43 KDMX 260707
RWRIA

WEATHER ROUNDUP FOR IOWA
NATIONAL WEATHER SERVICE DES MOINES IA
100 AM CST FRI DEC 26 2014

NOTE: "FAIR" INDICATES FEW OR NO CLOUDS BELOW 12,000 FEET WITH NO
SIGNIFICANT WEATHER AND/OR OBSTRUCTIONS TO VISIBILITY.

* - THESE STATIONS ARE NOT NWS STATIONS...THUS NOT UNDER NWS
QUALITY CONTROL.  THEY ALSO DO NOT REPORT WEATHER SUCH
AS PRECIPITATION OR FOG.

IAZ001>003-012>014-020>022-031>034-043>046-260800-
   NORTHWEST IOWA

CITY           SKY/WX    TMP DP  RH WIND       PRES   REMARKS
CARROLL *      PTCLDY    30  28  93 CALM      29.75R
CHEROKEE *     CLOUDY    32  32 100 N12       29.78R WCI  23
DENISON *      CLEAR     28  28 100 NE3       29.73S
LE MARS *      CLOUDY    34  32  93 N13       29.82R WCI  25
ORANGE CITY *  CLOUDY    34  30  86 N10       29.80S FOG     WCI  26
SHELDON *      CLOUDY    32  32 100 N14       29.81R FOG     WCI  22
SIOUX CITY     CLOUDY    34  31  88 N13       29.80S WCI  25
SPENCER        CLOUDY    33  30  88 N13       29.79R WCI  24
STORM LAKE *   CLEAR     28  28 100 N12       29.77R WCI  18
$$

IAZ055>058-069>071-079>083-090>094-260800-
   SOUTHWEST IOWA

CITY           SKY/WX    TMP DP  RH WIND       PRES   REMARKS
ATLANTIC *     PTCLDY    36  30  80 S6        29.74S WCI  31
AUDUBON *      CLEAR     28  23  80 CALM      29.75R
CLARINDA *     CLEAR     36  30  80 S5        29.77S WCI  32
COUNCIL BLFS * CLEAR     34  32  93 N6        29.73S WCI  29
CRESTON *      CLEAR     37  32  81 S10       29.76S WCI  30
HARLAN  *      CLEAR     28  28 100 CALM      29.77S
LAMONI         PTCLDY    38  30  73 S9        29.79S WCI  31
RED OAK *      CLEAR     36  32  87 S3        29.75R
SHENANDOAH *   CLEAR     37  32  81 CALM      29.76R
$$

IAZ047>049-059>061-072>074-084-260800-
   CENTRAL IOWA

CITY           SKY/WX    TMP DP  RH WIND       PRES   REMARKS
AMES           MOCLDY    36  30  79 SE8       29.77S WCI  30
ANKENY *       CLEAR     36  32  87 SE6       29.78S WCI  31
CHARITON *     PTCLDY    39  32  75 S10       29.80S WCI  32
DES MOINES     MOCLDY    39  31  72 S9        29.78S WCI  33
GRINNELL*      MOCLDY    37  32  81 SE13      29.81S WCI  29
KNOXVILLE *    MOCLDY    41  30  65 S10       29.79S
MARSHALLTOWN   MOCLDY    36  30  79 SE10      29.78F WCI  28
PELLA *        PTCLDY    39  32  75 S12       29.82S WCI  32
PERRY *          N/A     34  32  93 S7        29.75S WCI  28
$$

IAZ004>006-015-016-023>025-035-036-260800-
   NORTH CENTRAL IOWA

CITY           SKY/WX    TMP DP  RH WIND       PRES   REMARKS
ALGONA *       CLEAR     28  28 100 N6        29.78R FOG     WCI  22
CLARION *      CLEAR     32  32 100 SE8       29.77R WCI  25
ESTHERVILLE    CLOUDY    31  30  96 N14       29.79R WCI  21
FORT DODGE *     N/A     27  23  86 E3        29.76R
MASON CITY     MOCLDY    32  30  92 S9        29.79R WCI  24
FOREST CITY *  CLEAR     32  30  93 CALM      29.77R
IOWA FALLS *     N/A     34  32  93 SE8       29.78S WCI  27
$$

IAZ007>011-017>019-026>030-037>042-050>054-066-260800-
   NORTHEAST IOWA

CITY           SKY/WX    TMP DP  RH WIND       PRES   REMARKS
CEDAR RAPIDS   CLOUDY    40  32  73 S13       29.84S WCI  32
CHARLES CITY * CLEAR     36  32  87 SE9       29.80R WCI  29
CLINTON *      CLOUDY    41  34  75 S15       29.93F
DECORAH *      CLEAR     36  32  87 S10       29.81R WCI  28
DUBUQUE        CLOUDY    36  32  85 S13       29.87F WCI  27
MONTICELLO *   CLEAR     39  34  81 S9G16     29.86F WCI  33
OELWEIN *      PTCLDY    34  32  93 SE12      29.82S WCI  25
WATERLOO       MOCLDY    37  31  78 S12       29.80S WCI  29
$$

IAZ064-065-067-068-078-260800-
   EAST CENTRAL IOWA

CITY           SKY/WX    TMP DP  RH WIND       PRES   REMARKS
DAVENPORT      CLOUDY    42  32  67 S23G29    29.90F
IOWA CITY      CLOUDY    42  32  67 S13       29.88S
MT. PLEASANT * MOCLDY    39  32  75 S14G22    29.90S WCI  31
MUSCATINE *    CLEAR     41  34  75 S13       29.90F
QUAD CITIES    CLOUDY    43  33  68 S15G23    29.90F
$$

IAZ062-063-075>077-085>089-095>099-260800-
   SOUTHEAST IOWA

CITY           SKY/WX    TMP DP  RH WIND       PRES   REMARKS
BURLINGTON     PTCLDY    41  34  76 S15       29.92S
FAIRFIELD *    CLOUDY    43  32  65 S15       29.87S
FORT MADISON * CLEAR     41  36  81 S12G18    29.92F
KEOKUK *       CLEAR     43  34  70 S8G14     29.91S
OSKALOOSA *      N/A     39  32  75 S15       29.84S WCI  31
CENTERVILLE *  CLEAR     39  32  75 SE10      29.84S WCI  32
OTTUMWA        MOCLDY    41  31  67 S15       29.84S
WASHINGTON *   CLEAR     43  36  75 S14G21    29.87S
$$

ABBREVIATIONS USED IN REMARKS
   TC - TEMPERATURES IN CELSIUS
  WCI - WIND CHILL INDEX
   HX - HEAT INDEX
  VSB - VISIBILITY
$$



USA.gov is the U.S. government's official web portal to all federal, state and local government web resources and services.